Погода в Близнюках

Украина / Харьковская область     48°51′24″N   36°33′17″E
темп.,
°C
ветер,
м/с
пор.,
м/с
влажн.,
%
обл.,
%
осадки,
мм/ч
давл.,
гПа
погр.,
м
20 апреля, вт
вт2000:00+11ссв2266100 0.0 101242
03:00+10св3470100 0.0 1011112
06:00+10всв4877100 0.0 1009263
09:00+10вюв5787100 1.2 1008482
12:00+11вюв3681100 1.9 1005563
15:00+10юв51094100 10.3 1002872
18:00+11ююз6108694 1.2 1000944
21:00+9зсз4795100 2.3 1001406
21 апреля, ср
ср2100:00+9з61192100 0.4 1003713
03:00+8зюз7129096 0.6 1007578
06:00+7зюз61291100 0.1 1009470
09:00+10зюз697590 0.1 1012693
12:00+14зюз795191 0.1 10131981
15:00+13юз6953100 0.1 10141703
18:00+13зюз595987 0.3 10151364
21:00+9юз498044 1.7 1017227
22 апреля, чт
чт2200:00+7юз368640 0.1 1018120
03:00+7юз35885 0.1 101871
06:00+6ююз35945 0.0 102098
09:00+12ююз45735 0.0 1020526
12:00+16ююз555317 0.3 10201496
15:00+17юз454198 0.5 10202399
18:00+15юз2355100 0.0 102060
21:00+13ю335893 0.0 102049
23 апреля, пт
пт2300:00+10ююз36744 0.0 1020135
03:00+8ююз379354 0.3 1021187
06:00+8ююз36921 0.1 1021138
09:00+13ююз57620 0.1 1021569
12:00+16ююз78455 0.0 10201765
15:00+18ююз674098 0.0 10172488
18:00+15ююз485288 0.0 1017424
21:00+12ююз6136168 0.0 1017379
24 апреля, сб
сб2400:00+10ююз51173100 0.0 1016347
03:00+9юз4884100 0.0 1015322
06:00+7сз6890100 1.2 1016824
09:00+9сз56635 1.7 10171079
12:00+12зсз564356 0.1 10172150
15:00+13з673689 0.1 10162413
18:00+10з685762 0.1 10171359
21:00+6зсз610715 0.4 1020635